Preview of NWS' New Version of Forecast
This preview is not operational and should not be used for support decisions.

Regional Weather Roundup (RWR)

Issued by National Weather Service (NWS)

                            
000
ASUS43 KDTX 200001
RWRMI 
MICHIGAN HOURLY REGIONAL WEATHER ROUNDUP
NATIONAL WEATHER SERVICE DETROIT/PONTIAC MI
700 PM EST TUE FEB 19 2019

NOTE: "FAIR" INDICATES FEW OR NO CLOUDS BELOW 12,000 FEET WITH NO
SIGNIFICANT WEATHER AND/OR OBSTRUCTION TO VISIBILITY.

MIZ047>049-052>055-059>063-066>070-074>076-081>083-200100-
SOUTHEAST LOWER MICHIGAN
  
CITY           SKY/WX    TMP DP  RH WIND       PRES   REMARKS
ADRIAN         FAIR      26  15  63 E8        30.53F WCI  18          
6HR MIN TEMP:  26; 6HR MAX TEMP:  31;                                

ALMA           FAIR      19   7  61 CALM      30.54S                  
6HR MIN TEMP:  16; 6HR MAX TEMP:  24;                                

ANN ARBOR      FAIR      25   7  46 CALM      30.52F                  
BAD AXE        FAIR      18   9  68 S5        30.54F WCI  11          
6HR MIN TEMP:  18; 6HR MAX TEMP:  24;                                

CARO           FAIR      19  10  67 SE6       30.55R WCI  11          
DETROIT CITY   FAIR      21   9  59 SE6       30.56S WCI  13          
6HR MIN TEMP:  21; 6HR MAX TEMP:  30;                                

DETROIT        MOCLDY    26  16  65 SE10      30.55S WCI  16          
6HR MIN TEMP:  26; 6HR MAX TEMP:  32;                                

FLINT          FAIR      21   8  57 CALM      30.54F                  
6HR MIN TEMP:  21; 6HR MAX TEMP:  28;                                

GROSSE ILE     FAIR      25  17  73 CALM      30.55S                  
6HR MIN TEMP:  25; 6HR MAX TEMP:  31;                                

HILLSDALE      FAIR      26  12  56 E5        30.49R WCI  20          
6HR MIN TEMP:  25; 6HR MAX TEMP:  32;                                

HOWELL         FAIR      23   8  54 CALM      30.52S                  
6HR MIN TEMP:  21; 6HR MAX TEMP:  28;                                


CITY           SKY/WX    TMP DP  RH WIND       PRES   REMARKS
JACKSON        FAIR      23  11  60 E5        30.50F WCI  17          
6HR MIN TEMP:  21; 6HR MAX TEMP:  29;                                

LAMBERTVILLE   FAIR      28  19  68 E3        30.54S                  
6HR MIN TEMP:  28; 6HR MAX TEMP:  32;                                

LANSING        FAIR      23  11  60 E5        30.52F WCI  17          
6HR MIN TEMP:  23; 6HR MAX TEMP:  29;                                

LAPEER         FAIR      21   4  48 CALM      30.54S                  
6HR MIN TEMP:  21; 6HR MAX TEMP:  26;                                

MASON          FAIR      21  10  61 E5        30.51F WCI  15          
6HR MIN TEMP:  21; 6HR MAX TEMP:  27;                                

MONROE         FAIR      27  19  71 SE3       30.54F                  
6HR MIN TEMP:  26; 6HR MAX TEMP:  32;                                

PONTIAC        CLOUDY    22   4  46 SE3       30.51F                  
6HR MIN TEMP:  22; 6HR MAX TEMP:  29;                                

PORT HOPE        N/A     19   9  65 S7        30.55R WCI  10          
6HR MIN TEMP:  19; 6HR MAX TEMP:  23;                                

PORT HURON     FAIR      16  10  79 E3        30.56F                  
TRI CITIES     FAIR      21   9  59 S7        30.56R WCI  12          
6HR MIN TEMP:  20; 6HR MAX TEMP:  25;                                

MIDLAND        FAIR      23  12  61 SE3       30.55R                  
6HR MIN TEMP:  23; 6HR MAX TEMP:  28;                                

TROY           FAIR      25   8  49 E5        30.56S WCI  19          
SAGINAW HB     FAIR      21  10  63 SW3       30.55F                  
$$
MIZ043>046-050>051-056>058-064>065-071>073-077>080-200100-
SOUTHWEST LOWER MICHIGAN
  
CITY           SKY/WX    TMP DP  RH WIND       PRES   REMARKS
BATTLE CREEK   FAIR      27  12  53 SE3       30.51S                  
6HR MIN TEMP:  25; 6HR MAX TEMP:  30;                                

BENTON HARBOR  FAIR      28  16  60 E6        30.50R WCI  22          
6HR MIN TEMP:  28; 6HR MAX TEMP:  34;                                

BIG RAPIDS     CLOUDY    25  15  65 S5        30.50R WCI  20          
6HR MIN TEMP:  25; 6HR MAX TEMP:  28;                                

COLDWATER      FAIR      28  15  58 SE3       30.50R                  
6HR MIN TEMP:  28; 6HR MAX TEMP:  31;                                

FREMONT        CLOUDY    27  16  62 S3        30.51R                  
6HR MIN TEMP:  25; 6HR MAX TEMP:  28;                                

HOLLAND        FAIR      25  13  60 E3        30.51S                  
6HR MIN TEMP:  25; 6HR MAX TEMP:  31;                                

GRAND RAPIDS   FAIR      22  11  62 E6        30.51F WCI  14          
6HR MIN TEMP:  22; 6HR MAX TEMP:  29;                                

IONIA          FAIR      19   9  67 E3        30.51S                  
6HR MIN TEMP:  19; 6HR MAX TEMP:  26;                                

KALAMAZOO      FAIR      27  14  58 SE5       30.51R WCI  22          
6HR MIN TEMP:  25; 6HR MAX TEMP:  30;                                

LUDINGTON      CLOUDY    27  16  64 S6        30.51R WCI  20          
6HR MIN TEMP:  25; 6HR MAX TEMP:  27;                                

MOUNT PLEASANT FAIR      21   9  58 S5        30.53R WCI  15          
6HR MIN TEMP:  21; 6HR MAX TEMP:  25;                                

MUSKEGON       MOCLDY    26  15  63 SE5       30.52S WCI  20          
6HR MIN TEMP:  25; 6HR MAX TEMP:  29;                                

SOUTH HAVEN    FAIR      29  15  56 CALM      30.50S                  
$$
MIZ016>042-200100-
NORTHERN LOWER MICHIGAN
  
CITY           SKY/WX    TMP DP  RH WIND       PRES   REMARKS
ALPENA         FAIR      15  11  83 CALM      30.48S                  
6HR MIN TEMP:  14; 6HR MAX TEMP:  28;                                

BEAVER ISLAND  CLOUDY    23  15  72 SW5       30.45S WCI  17          
6HR MIN TEMP:  20; 6HR MAX TEMP:  26;                                

BELLAIRE       FAIR      21  13  72 CALM      30.47F                  
6HR MIN TEMP:  21; 6HR MAX TEMP:  29;                                

CADILLAC       CLOUDY    23  12  63 S6        30.45R WCI  15          
CHARLEVOIX     FAIR      20  14  79 CALM      30.49S                  
6HR MIN TEMP:  20; 6HR MAX TEMP:  27;                                

FRANKFORT      CLOUDY    26  17  68 S5        30.48R WCI  20          
GAYLORD        FAIR      17   8  67 S5        30.42F WCI  10          
6HR MIN TEMP:  16; 6HR MAX TEMP:  24;                                

HARBOR SPRINGS FAIR      18  14  82 CALM      30.46S                  
HOUGHTON LAKE  FAIR      19  10  68 S9        30.47R WCI   8          
6HR MIN TEMP:  19; 6HR MAX TEMP:  25;                                

MANISTEE       CLOUDY    26  18  71 S3        30.51R                  
OSCODA         FAIR      19  11  73 S7        30.53R WCI   9          
6HR MIN TEMP:  19; 6HR MAX TEMP:  25;                                

PELLSTON       FAIR      20  12  71 CALM      30.46F                  
6HR MIN TEMP:  20; 6HR MAX TEMP:  26;                                

ROGERS CITY    FAIR      11   8  87 CALM      30.48F                  
TRAVERSE CITY  FAIR      24  13  62 S3        30.46F                  
6HR MIN TEMP:  24; 6HR MAX TEMP:  29; 6HR PCP: TRACE;                

$$
MIZ007>008-015-200100-
EASTERN UPPER MICHIGAN
  
CITY           SKY/WX    TMP DP  RH WIND       PRES   REMARKS
KINROSS        FAIR      17  11  77 S5        30.44S WCI  10          
6HR MIN TEMP:  17; 6HR MAX TEMP:  27; 6HR PCP: TRACE;                

MACKINAC ISLAN FAIR      20  14  76 SW8       30.46R WCI  11          
6HR MIN TEMP:  19; 6HR MAX TEMP:  24;                                

NEWBERRY       FAIR      16   6  67 MISG      30.41S                  
6HR MIN TEMP:  16; 6HR MAX TEMP:  24;                                

S. S. MARIE    FAIR      20  11  68 S3        30.42F                  
6HR MIN TEMP:  19; 6HR MAX TEMP:  26;                                

MUNISING         N/A     21  52 100 S8        30.41R WCI  11          
6HR MIN TEMP:  16; 6HR MAX TEMP:  27;                                

$$
MIZ004>006-011>014-085-200100-
CENTRAL UPPER MICHIGAN
  
CITY           SKY/WX    TMP DP  RH WIND       PRES   REMARKS
MANISTIQUE     FAIR      19   2  47 SW7       30.43R WCI  10          
6HR MIN TEMP:  19; 6HR MAX TEMP:  23;                                

ESCANABA       FAIR      16   8  71 S10       30.44S WCI   4          
6HR MIN TEMP:  15; 6HR MAX TEMP:  22;                                

MENOMINEE      FAIR      18   9  68 SW8       30.46S WCI   8          
6HR MIN TEMP:  18; 6HR MAX TEMP:  30;                                

SAWYER-GWINN   CLEAR     21  10  63 S3        30.34F                  
$$
MIZ001>003-009>011-084-200100-
WESTERN UPPER MICHIGAN
  
CITY           SKY/WX    TMP DP  RH WIND       PRES   REMARKS
IRON MOUNTAIN  FAIR      14   5  67 SE3       30.35S                  
6HR MIN TEMP:  14; 6HR MAX TEMP:  27;                                

HOUGHTON       FAIR      13   0  56 CALM      30.32F                  
6HR MIN TEMP:  11; 6HR MAX TEMP:  21;                                

COPPER HARBOR    N/A     12   7  80 S5        30.36F WCI   4          
6HR MIN TEMP:  12; 6HR MAX TEMP:  24;                                

IRONWOOD       FAIR      20   5  52 S3        30.33R                  
6HR MIN TEMP:  20; 6HR MAX TEMP:  29;                                

$$

ABBREVIATIONS USED IN REMARKS
   TC - TEMPERATURE IN CELSIUS
  WCI - WIND CHILL INDEX
   HX - HEAT INDEX
  VSB - VISIBILITY